Preview of NWS' New Version of Forecast
This preview is not operational and should not be used for support decisions.

Regional Weather Roundup (RWR)

Issued by National Weather Service (NWS)

                            
000
ASUS43 KMKX 220721
RWRWI 

WISCONSIN REGIONAL WEATHER ROUNDUP
NATIONAL WEATHER SERVICE MILWAUKEE/SULLIVAN WI
200 AM CDT MON JUL 22 2019

NOTE: "FAIR" INDICATES FEW OR NO CLOUDS BELOW 12,000 FEET WITH NO
SIGNIFICANT WEATHER AND/OR OBSTRUCTIONS TO VISIBILITY.

WIZ001-002-006>008-014>016-023>028-220800-
NORTHWEST WISCONSIN
  
CITY           SKY/WX    TMP DP  RH WIND       PRES   REMARKS
SUPERIOR ARPT  FAIR      48  47  96 CALM      30.16S                  
ASHLAND        FAIR      57  54  89 NW5       30.14S                  
HAYWARD        FAIR      55  54  96 CALM      30.16R                  
SIREN          FAIR      57  50  77 N3        30.16R                  
CUMBERLAND     NOT AVBL                                               
RICE LAKE      CLOUDY    64  51  63 NW3       30.15R                  
CHETEK         CLOUDY    64  57  78 W5        30.13R                  
LADYSMITH      FAIR      58  56  94 N5        30.15S                  
EAU CLAIRE     CLOUDY    65  57  75 N3        30.11R                  
MENOMONIE      MOCLDY    62  56  81 NW3       30.12S                  
NEW RICHMOND   FAIR      61  56  83 N8        30.15R                  
OSCEOLA        FAIR      61  56  83 N3        30.18S                  
$$
 
WIZ003>005-009-010-017-018-220800-
NORTH CENTRAL WISCONSIN
  
CITY           SKY/WX    TMP DP  RH WIND       PRES   REMARKS
MANITOWISH WTR FAIR      52  52 100 CALM      30.14R                  
ARBOR VITAE    FAIR      57  54  90 CALM      30.14R                  
WOODRUFF       FAIR      57  54  90 CALM      30.14R                  
RHINELANDER    FAIR      57  52  83 N3        30.14R                  
EAGLE RIVER    FAIR      53  52  98 CALM      30.13S                  
LAND O LAKES   FAIR      51  50  97 CALM      30.15R                  
PHILLIPS       MOCLDY    54  54 100 CALM      30.14S                  
TOMAHAWK       FAIR      51  50  97 CALM      30.15R                  
MEDFORD        FAIR      56  52  88 N5        30.13R                  
MERRILL        FAIR      55  54  99 CALM      30.13R                  
$$
 
WIZ029-030-035-036-043>047-220800-
CENTRAL WISCONSIN
  
CITY           SKY/WX    TMP DP  RH WIND       PRES   REMARKS
WAUSAU         FAIR      61  54  77 CALM      30.10R                  
MOSINEE        MOCLDY    61  54  77 N6        30.11F                  
MARSHFIELD     CLOUDY    63  56  78 NE6       30.10S                  
STEVENS POINT  CLOUDY    62  57  83 CALM      30.10S                  
WAUPACA        NOT AVBL                                               
WAUTOMA        LGT RAIN  65  61  87 CALM      30.09R                  
WISC RAPIDS    CLOUDY    67  56  67 NE8       30.10R                  
CAMP DOUGLAS   NOT AVBL                                               
$$
 
WIZ011>013-019>022-031-037>040-048>050-220800-
NORTHEAST WISCONSIN
  
CITY           SKY/WX    TMP DP  RH WIND       PRES   REMARKS
ANTIGO         FAIR      54  53  97 CALM      30.12F                  
SHAWANO        FAIR      65  53  65 NE5       30.09S                  
OCONTO         FAIR      60  53  78 CALM      30.08S                  
STURGEON BAY   FAIR      61  52  72 NE6       30.08S                  
GREEN BAY      CLOUDY    66  57  72 N12       30.07S                  
MANITOWOC      CLOUDY    63  54  72 N7        30.06S                  
APPLETON       CLOUDY    63  52  67 N8        30.07R                  
CLINTONVILLE   FAIR      63  54  72 NE3       30.09S                  
OSHKOSH        MOCLDY    66  55  67 E9        30.06S                  
$$
 
WIZ032>034-041-042-053>061-220800-
SOUTHWEST WISCONSIN
  
CITY           SKY/WX    TMP DP  RH WIND       PRES   REMARKS
LA CROSSE      FAIR      69  59  70 N5        30.07S                  
SPARTA         CLOUDY    62  59  91 N5        30.09S                  
VIROQUA        FAIR      64  63  99 N7        30.08S                  
BOSCOBEL       FAIR      67  62  84 CALM      30.05S                  
PRAIRIE DU CHI FAIR      69  60  75 CALM      30.05S                  
PLATTEVILLE    FAIR      66  64  93 N6        30.05S                  
$$

WIZ056-057-062-063-064-067-068-220800-
SOUTH CENTRAL WISCONSIN
  
CITY           SKY/WX    TMP DP  RH WIND       PRES   REMARKS
REEDSBURG      MOCLDY    66  62  87 NE5       30.06S                  
BARABOO/DELLS  LGT RAIN  65  61  85 NE5       30.06S                  
LONE ROCK      FAIR      69  60  73 VRB3      30.04R                  
MINERAL POINT  MOCLDY    66  64  94 N7        30.05S                  
MADISON        FAIR      66  59  78 NE5       30.04R                  
MIDDLETON      FAIR      67  59  74 E5        30.06R                  
WATERTOWN      FAIR      64  62  93 N5        30.05R                  
MONROE         FAIR      65  61  85 NE5       30.04S                  
JANESVILLE     FAIR      68  59  73 N5        30.02S                  
$$
 
WIZ051-052-058>065-066-070>072-220800-
SOUTHEAST WISCONSIN
  
CITY           SKY/WX    TMP DP  RH WIND       PRES   REMARKS
MILWAUKEE      CLOUDY    66  58  75 N13       30.01S                  
WAUKESHA       FAIR      63  55  77 NE5       30.05R                  
MILWAUKEE/TIMM CLOUDY    64  54  68 NE10      30.04S                  
RACINE         FAIR      65  59  81 N12       30.03R                  
KENOSHA        FAIR      66  62  87 N8        30.01S                  
FOND DU LAC    CLOUDY    68  58  70 NE9       30.06S                  
SHEBOYGAN      CLOUDY    63  56  78 N8        30.05S                  
WEST BEND      MOCLDY    63  57  82 NE8       30.05R                  
JUNEAU         CLOUDY    64  58  81 N5        30.07R                  
$$

LSZ147-162-220800-
LAKE SUPERIOR
  
STATION/POSITION TIME  TEMP    WIND        PRES    WAVE
                       AIR SEA DIR/SP/G            HT/PER
                 (UTC) (F)     (DEG/KT/KT) (MB)    (FT/S)
W MID LAKE BUOY  0650   53 48  280/  6/  8 1019.4S   0
$$
 
LMZ867-665-643>646-220800-
LAKE MICHIGAN
  
STATION/POSITION TIME  TEMP    WIND        PRES    WAVE
                       AIR SEA DIR/SP/G            HT/PER
                 (UTC) (F)     (DEG/KT/KT) (MB)    (FT/S)
CHAMBERS ISLAND  0640   64     340/ 10/ 11 1017.6S
N MID LAKE BUOY  0700   63 65  330/ 12/ 14 1018.0
NORTHPORT PIER   0640   65     340/  7/  8 1017.9R
KEWAUNEE LAKESHO 0648   63      10/  2/  7 1017.4S
SHEBOYGAN LAKESH 0700   59     350/ 15/ 17 1017.3R
ATWATER BUOY     0500   62 58  350/ 12/ 14 1016.8F   1/ 2
MILWAUKEE LAKESH 0640   65     360/ 13/ 16   N/A
S MID LAKE BUOY  0700   67 68   20/ 12/ 14 1015.3
KENOSHA   LAKESH 0700   65     350/ 13/ 15 1015.9
$$

TC  - TEMPERATURE IN CELSIUS
VSB - VISIBILITY IN STATUTE MILES
WCI - WIND CHILL INDEX
HX  - HEAT INDEX